Location: Nag� el Ma?a??a
(24.0667°N, 32.8833°E)
Time: 16:04:11
(UTC+00:00)

Cosmos 1709 Rocket - Pass Details

Date: 25 September 2021
Orbit: 947 x 1002 km, 82.9° (Epoch: 16 October)

Event Time Altitude Azimuth Distance (km) Brightness Sun altitude
Rises 03:14:09 0° 351° (N) 3,617 6.9 -6.3°
Reaches altitude 10° 03:16:39 10° 348° (NNW) 2,672 6.2 -5.7°
Maximum altitude 03:22:41 66° 267° (W) 1,033 4.0 -4.4°
Drops below altitude 10° 03:28:45 10° 186° (S) 2,689 6.3 -3.0°
Sets 03:31:17 0° 184° (S) 3,641 7.0 -2.4°
